Temperature
13 13 13 13 12 12 12 12 12 11 11 11 11 11 11 11 11 11 11 11 11 11 11 11 11 11 11 11 11 11 11 11 11 11 11 11 10 10
13 13 12 12 12 12 12 12 12 11 11 11 11 11 11 11 11 11 11 11 11 11 11 11 11 11 11 11 11 11 11 11 11 10 10 10 10 10
12 12 12 12 12 12 11 11 11 11 11 11 11 11 11 10 10 11 10 11 10 10 10 10 10 11 10 10 10 10 10 10 10 10 10 10 10 10
12 12 12 12 11 11 11 11 11 11 11 11 10 10 10 10 10 10 10 10 10 10 10 10 10 10 10 10 10 10 10 10 10 10 10 10 10 10
12 12 12 11 11 11 11 11 11 11 10 10 10 10 10 10 10 10 10 10 10 10 10 10 10 10 10 10 10 10 10 10 10 10 9 9 9 9
12 11 11 11 11 11 11 11 10 10 10 10 10 10 10 10 9 9 10 10 10 10 10 10 10 10 10 10 10 10 9 9 9 9 9 9 9 9
11 11 11 11 11 11 10 10 10 10 10 10 9 9 9 9 9 9 9 9 9 10 10 10 10 10 10 10 10 10 9 9 9 9 9 9 9 9
11 11 11 10 10 10 10 10 10 10 10 9 9 9 9 9 9 9 9 9 9 9 9 9 9 9 9 9 9 9 9 9 9 9 9 9 9 9
11 10 10 10 10 10 10 10 10 9 9 9 9 9 9 9 9 9 9 9 9 9 9 9 9 9 9 9 9 9 9 9 9 9 9 8 8 8
10 10 10 10 10 10 10 10 9 9 9 9 9 9 9 8 8 8 8 8 8 8 8 8 9 9 9 9 9 9 9 9 8 8 8 8 8 8
10 10 10 10 10 10 9 9 9 9 9 9 9 9 8 8 8 8 8 8 8 8 8 8 8 8 8 8 8 8 8 8 8 8 8 8 8 8
10 10 10 10 9 9 9 9 9 9 9 9 9 8 8 8 8 8 8 8 7 8 8 8 8 7 8 8 8 8 8 8 8 8 8 8 8 8
10 10 10 9 9 9 9 9 9 9 8 8 8 8 8 8 8 8 7 7 7 7 7 7 7 7 7 7 8 8 8 7 7 8 7 7 7 7
9 9 9 9 9 9 9 8 8 8 8 8 8 8 8 8 8 7 7 7 7 7 7 7 7 7 7 7 7 7 7 7 7 7 7 7 7 7
9 9 9 9 9 8 8 8 8 8 8 8 7 7 7 7 7 7 7 7 7 6 6 6 6 6 6 6 7 7 7 7 7 7 7 7 7 7
9 9 8 8 8 8 8 8 7 7 7 7 7 7 7 7 7 6 6 6 6 6 6 6 6 6 6 6 6 6 6 6 7 7 7 7 7 6
8 8 8 8 8 8 8 7 7 7 7 7 7 7 6 6 6 6 6 6 6 6 6 6 6 6 6 6 6 6 6 6 6 6 6 6 6 6
8 8 8 8 8 8 8 7 7 7 7 7 6 6 6 6 6 6 6 6 6 6 6 6 6 6 6 6 6 6 6 6 6 6 6 6 6 6
7 8 7 7 7 7 7 7 7 7 6 6 6 6 6 6 6 6 6 5 5 5 5 5 5 5 5 5 6 6 5 5 5 5 5 5 6 6
7 7 7 7 7 7 7 7 7 7 6 6 6 6 6 6 6 6 5 5 5 5 5 5 5 5 5 5 5 5 5 5 5 5 5 5 5 5
7 7 7 7 7 7 7 6 6 6 6 6 6 6 6 6 6 5 5 5 5 5 5 5 5 5 5 4 4 5 5 5 5 4 5 4 5 5
7 7 7 7 6 6 6 6 6 6 6 6 6 6 6 5 5 5 5 5 5 5 5 5 5 4 4 4 4 4 5 5 5 4 4 4 4 4
6 6 6 6 6 6 6 6 6 6 6 6 6 6 5 5 5 5 5 5 4 4 4 4 4 4 4 4 4 4 4 4 4 4 4 4 4 4
Wind_Speed
1 2 1 1 1 1 2 3 3 1 2 2 1 2 2 2 3 2 2 2 2 2 2 2 3 3 4 4 5 4 3 4 4 5 5 4 5 4
1 2 1 1 1 1 2 1 2 2 2 2 2 2 2 2 2 2 2 3 2 2 2 2 2 2 3 3 4 4 3 4 4 5 4 4 4 4
1 1 1 1 1 1 1 1 1 2 2 2 1 1 1 2 2 3 3 3 3 3 2 2 1 1 1 2 3 4 4 4 4 4 4 4 4 3
2 2 1 1 1 1 1 1 1 2 3 2 1 1 1 1 2 2 3 3 3 3 3 2 1 1 1 1 1 2 3 3 3 3 2 2 3 3
2 2 2 2 2 1 2 1 1 1 2 2 1 1 0 1 2 2 3 3 3 3 3 3 2 2 1 1 1 1 2 2 2 2 1 1 2 3
2 2 3 3 3 3 2 2 2 2 2 2 1 0 0 1 1 1 2 2 3 3 3 3 3 3 3 2 2 2 2 3 3 2 2 1 1 2
2 2 3 3 4 3 2 3 3 2 2 1 1 1 1 0 1 1 1 2 3 2 2 3 3 3 3 4 4 4 4 4 4 3 3 2 2 2
2 2 2 3 4 4 4 4 4 4 3 3 2 2 3 3 2 2 1 1 2 2 1 3 2 2 4 4 4 4 5 5 5 5 4 3 4 4
3 3 2 2 2 3 3 3 4 4 5 4 4 5 4 4 4 3 3 2 3 2 1 2 2 3 4 5 5 5 5 5 5 6 6 5 5 5
4 4 4 3 3 3 3 2 2 3 4 4 4 5 4 4 5 4 4 2 1 1 2 2 2 3 4 4 5 5 4 4 5 5 6 6 6 6
4 4 4 4 5 4 4 3 2 3 3 4 4 4 4 5 5 3 2 1 2 2 2 2 2 2 2 3 5 5 5 5 5 6 6 7 7 7
3 4 5 5 5 5 5 4 4 4 2 1 2 2 2 4 5 4 4 2 1 2 3 2 2 1 2 2 2 4 5 6 7 7 7 8 7 5
3 3 4 6 6 6 5 5 6 4 2 2 1 1 1 1 2 4 4 4 3 4 3 3 2 1 2 2 2 2 3 3 4 5 7 7 7 7
4 3 3 5 5 6 5 5 5 3 2 2 2 2 2 3 3 3 5 5 4 4 5 5 2 3 2 2 3 2 2 3 4 4 5 6 7 8
3 4 4 4 4 4 5 5 4 3 3 3 3 4 3 3 2 1 2 2 2 2 3 5 3 3 3 3 3 2 2 2 3 3 4 4 5 5
2 2 3 3 2 3 3 3 3 4 4 4 3 3 2 2 2 2 2 2 1 2 3 5 6 4 4 4 4 4 3 3 2 3 3 4 5 7
1 0 1 1 1 2 2 2 2 3 3 3 3 3 2 2 2 2 2 2 2 3 3 2 3 4 4 4 4 5 4 4 4 3 3 4 5 7
2 2 2 3 3 3 3 3 3 3 4 3 3 4 4 4 4 2 2 3 4 4 4 3 1 0 1 3 7 6 5 5 4 4 4 4 6 6
2 3 3 4 4 4 4 4 4 4 3 3 4 4 4 4 3 4 4 4 4 5 4 3 3 3 4 6 5 8 6 5 4 4 5 5 7 7
3 4 4 4 4 4 4 4 4 3 3 4 4 4 4 4 4 4 5 5 5 5 4 3 4 5 7 6 4 4 9 7 5 6 5 5 5 7
4 4 4 4 4 4 4 4 4 4 4 4 4 4 4 4 5 5 5 6 5 5 6 6 6 7 4 2 4 4 4 9 9 5 4 4 4 4
4 4 4 4 4 4 4 4 4 4 4 4 4 4 4 4 5 5 5 5 5 6 6 5 3 2 3 5 7 7 6 5 7 10 10 8 4 4
4 4 4 4 4 3 3 4 4 4 4 4 4 4 4 4 4 4 5 5 5 5 5 4 3 3 5 6 7 7 7 6 4 4 6 11 14 14
Wind_Direction
168 162 154 155 152 157 151 158 158 196 264 265 286 324 332 336 342 11 9 14 25 41 55 62 61 56 57 55 51 50 61 70 78 88 93 91 86 91
160 144 133 130 140 142 152 156 156 169 221 246 251 292 314 327 349 6 352 357 15 33 45 55 57 64 65 61 58 65 82 87 92 96 96 87 89 87
157 156 172 146 143 148 153 154 152 150 202 266 274 314 315 341 0 7 5 11 9 12 9 5 31 57 77 73 71 75 77 79 92 97 98 94 96 96
197 179 193 166 156 162 163 172 180 175 181 221 265 301 294 322 349 358 0 4 3 354 348 342 339 8 53 64 77 99 99 91 87 93 105 118 126 123
194 192 201 168 181 187 172 167 176 159 160 179 233 277 332 357 8 356 359 359 349 344 339 336 332 327 314 276 244 201 173 159 149 136 136 136 156 163
201 207 203 187 196 194 188 178 153 132 128 142 181 266 329 357 40 350 337 345 333 340 341 334 329 325 309 286 262 230 215 201 189 185 179 164 161 180
212 221 220 211 206 195 193 180 162 153 151 161 196 222 239 245 242 233 266 308 317 324 336 336 334 327 314 293 269 240 224 216 208 204 204 206 210 217
218 235 246 235 222 214 211 193 178 177 184 183 205 218 237 233 222 224 229 296 289 296 299 307 325 301 293 286 266 243 231 226 220 218 219 224 230 238
211 214 240 250 221 202 209 202 206 205 196 190 202 221 222 216 200 211 219 228 247 260 232 278 294 284 283 281 269 249 235 233 231 226 225 230 232 237
217 211 212 228 219 183 175 185 217 230 220 209 212 221 216 202 198 203 204 204 265 280 198 240 269 272 290 279 270 252 242 243 244 234 229 229 228 234
229 217 212 220 223 188 172 190 231 264 250 228 227 226 221 204 178 144 156 167 263 266 212 213 249 273 283 280 265 255 246 250 247 242 239 238 231 231
233 227 225 222 217 196 188 190 213 236 228 239 255 258 229 210 199 193 189 193 216 245 215 199 227 243 290 284 283 265 253 251 250 247 247 246 235 225
230 233 233 225 219 209 201 206 221 215 200 200 219 246 254 230 218 213 204 200 209 231 207 184 202 209 236 286 298 270 242 245 248 250 249 248 235 221
230 234 231 220 217 212 212 217 213 188 181 197 221 236 241 244 242 225 222 222 227 232 203 182 191 198 207 248 274 286 267 249 237 243 246 251 245 239
234 230 226 221 215 215 217 211 200 194 193 215 231 238 235 230 225 230 231 230 261 275 215 202 203 203 206 223 241 247 269 266 237 238 244 241 240 236
246 238 226 216 220 227 227 225 215 208 209 222 236 234 216 207 215 210 220 226 255 282 256 226 215 205 219 235 236 248 240 248 253 248 256 260 250 237
186 215 222 214 216 225 232 233 224 217 224 226 223 224 223 224 233 219 212 210 221 252 269 265 241 233 231 223 238 246 244 249 248 241 237 258 259 249
163 213 225 226 229 228 229 235 232 230 229 226 227 226 226 228 231 223 214 214 229 243 250 247 231 308 311 267 229 240 244 249 252 243 231 247 263 261
202 223 229 231 235 235 234 232 234 234 226 224 229 231 232 232 229 228 225 227 237 243 248 231 209 210 246 268 257 219 231 253 251 248 238 239 255 263
228 230 233 233 233 233 235 240 241 234 229 230 234 233 227 230 233 234 229 229 236 242 247 238 224 221 231 249 255 251 225 230 238 248 252 253 263 271
238 240 239 237 235 233 233 234 233 232 230 227 230 232 230 229 235 237 234 232 235 239 245 247 244 238 238 252 271 270 255 233 233 241 242 255 271 277
241 242 241 240 237 236 237 237 236 236 231 230 233 233 231 229 234 236 235 235 236 240 249 257 257 225 215 235 254 263 269 268 256 251 244 234 230 240
245 245 245 241 237 235 233 236 240 245 241 239 237 235 230 231 233 233 236 236 238 243 250 256 252 235 237 240 253 262 265 268 267 266 265 256 252 258
Height
1536 1536 1536 1537 1537 1537 1537 1537 1537 1536 1535 1536 1536 1536 1535 1535 1534 1533 1533 1533 1532 1532 1532 1532 1532 1532 1532 1532 1531 1531 1531 1531 1531 1531 1532 1532 1532 1532
1534 1534 1534 1535 1535 1535 1535 1535 1535 1535 1534 1533 1534 1534 1534 1533 1533 1532 1532 1531 1531 1531 1531 1531 1530 1530 1530 1530 1530 1530 1530 1530 1530 1530 1531 1531 1531 1531
1532 1532 1532 1533 1533 1533 1533 1533 1533 1533 1532 1531 1532 1532 1532 1531 1531 1531 1530 1530 1530 1530 1529 1529 1529 1529 1529 1529 1529 1529 1529 1529 1529 1529 1530 1530 1530 1530
1529 1530 1530 1530 1530 1530 1531 1530 1530 1530 1530 1529 1529 1529 1529 1529 1529 1529 1529 1528 1528 1528 1528 1528 1527 1527 1527 1527 1527 1527 1527 1527 1527 1528 1528 1529 1529 1529
1527 1527 1528 1528 1528 1528 1528 1528 1528 1528 1528 1527 1527 1527 1527 1527 1527 1527 1527 1527 1526 1526 1526 1526 1526 1525 1525 1525 1525 1525 1525 1526 1526 1526 1526 1527 1527 1528
1524 1525 1525 1526 1526 1526 1526 1526 1526 1526 1526 1525 1525 1525 1525 1525 1525 1525 1525 1525 1524 1524 1524 1524 1524 1523 1523 1523 1523 1523 1523 1524 1524 1524 1525 1525 1525 1526
1522 1522 1523 1523 1524 1524 1524 1524 1524 1523 1523 1523 1523 1523 1523 1523 1523 1523 1522 1522 1522 1522 1522 1522 1522 1521 1521 1521 1521 1521 1521 1521 1522 1522 1522 1523 1523 1524
1519 1519 1520 1521 1521 1521 1521 1521 1522 1521 1521 1521 1521 1521 1520 1521 1521 1520 1520 1520 1519 1520 1520 1519 1519 1519 1519 1519 1519 1518 1518 1518 1519 1519 1520 1520 1520 1520
1516 1517 1517 1518 1518 1518 1518 1518 1519 1519 1519 1519 1518 1518 1518 1518 1518 1518 1518 1517 1517 1517 1517 1516 1516 1516 1516 1516 1516 1516 1516 1515 1515 1516 1516 1517 1517 1517
1513 1514 1514 1515 1515 1515 1515 1515 1515 1515 1515 1515 1515 1515 1516 1516 1516 1516 1515 1515 1515 1514 1514 1513 1513 1513 1513 1513 1513 1513 1513 1513 1513 1513 1513 1513 1513 1513
1510 1510 1511 1511 1512 1512 1512 1512 1512 1512 1512 1512 1512 1512 1512 1512 1512 1512 1512 1511 1511 1511 1511 1511 1510 1509 1509 1509 1510 1510 1510 1510 1510 1510 1510 1510 1510 1509
1506 1507 1507 1507 1508 1508 1508 1508 1508 1508 1508 1508 1508 1508 1508 1508 1508 1508 1508 1508 1508 1508 1508 1508 1507 1507 1506 1506 1506 1506 1506 1506 1506 1507 1506 1506 1506 1506
1503 1503 1503 1504 1504 1504 1505 1504 1504 1505 1505 1504 1504 1504 1504 1504 1504 1504 1505 1505 1505 1505 1505 1504 1504 1504 1504 1503 1503 1503 1503 1503 1503 1503 1503 1503 1503 1502
1499 1499 1499 1500 1500 1500 1500 1501 1501 1501 1501 1500 1500 1500 1500 1500 1500 1500 1501 1501 1501 1501 1501 1501 1501 1501 1500 1499 1499 1499 1499 1499 1499 1499 1499 1499 1499 1499
1495 1495 1496 1496 1496 1496 1496 1497 1497 1497 1497 1496 1496 1496 1496 1496 1497 1497 1496 1497 1497 1497 1497 1497 1497 1497 1497 1496 1496 1495 1495 1495 1495 1495 1495 1494 1494 1494
1491 1491 1492 1492 1492 1492 1492 1492 1492 1493 1492 1493 1492 1493 1493 1493 1493 1492 1492 1492 1492 1493 1493 1493 1493 1493 1492 1492 1492 1491 1491 1491 1490 1490 1490 1490 1490 1489
1487 1487 1487 1487 1487 1487 1487 1487 1488 1488 1488 1488 1489 1489 1489 1489 1489 1489 1489 1488 1488 1488 1488 1489 1489 1489 1488 1488 1487 1487 1486 1486 1486 1486 1485 1484 1484 1484
1483 1482 1482 1482 1483 1483 1483 1483 1483 1483 1484 1484 1484 1484 1484 1484 1484 1485 1484 1484 1484 1484 1484 1484 1484 1484 1483 1482 1483 1482 1481 1481 1481 1481 1480 1479 1478 1479
1479 1478 1478 1478 1479 1479 1479 1479 1479 1479 1479 1479 1479 1480 1480 1480 1480 1480 1480 1480 1479 1480 1480 1480 1480 1479 1478 1477 1476 1477 1477 1476 1475 1475 1474 1473 1472 1472
1474 1474 1474 1474 1474 1474 1474 1475 1475 1475 1475 1475 1475 1475 1475 1475 1475 1475 1475 1474 1474 1474 1475 1475 1475 1474 1474 1473 1471 1471 1471 1470 1470 1469 1468 1468 1467 1467
1469 1469 1469 1469 1469 1469 1470 1470 1470 1470 1470 1470 1470 1470 1470 1470 1470 1470 1469 1469 1469 1469 1469 1469 1469 1470 1469 1468 1466 1464 1465 1465 1465 1464 1463 1462 1460 1459
1464 1464 1464 1464 1464 1464 1464 1464 1464 1464 1464 1465 1465 1465 1465 1465 1465 1465 1464 1464 1464 1464 1464 1464 1464 1464 1463 1462 1460 1459 1459 1459 1459 1459 1458 1457 1455 1453
1458 1458 1458 1458 1459 1459 1459 1459 1459 1459 1459 1459 1459 1459 1460 1460 1460 1459 1459 1459 1459 1458 1458 1458 1458 1457 1456 1456 1455 1453 1453 1452 1452 1451 1451 1451 1450 1449